Lapse_Rate
5.8 5.8 5.8 5.4 5.4 5.6 5.6 5.8 6.5 7.8 8.0 8.1 8.0 7.7 7.8 7.9 8.1 8.6 8.0 7.9 7.8 8.1 7.8 7.4 7.4 7.1 7.3 7.8 7.7 8.7 7.9 7.2 7.6 7.3 6.8 7.6 7.3 6.9 6.5 6.6 6.6 6.5 6.5 6.6 6.9 6.8 6.5
5.6 5.4 5.5 5.4 5.3 5.2 5.5 5.7 6.5 7.8 7.8 7.9 8.1 7.6 7.8 8.0 8.2 8.6 8.2 7.7 7.8 7.8 7.8 7.4 7.4 7.3 8.0 6.6 9.7 9.7 9.7 8.6 9.1 7.4 6.7 7.2 7.1 7.0 6.7 6.4 6.5 6.8 6.7 6.6 6.6 6.9 6.9
5.6 5.6 5.3 5.1 5.2 4.7 5.4 5.3 5.8 7.3 7.9 8.1 8.3 8.1 7.8 8.0 8.5 8.3 8.3 7.7 7.8 7.7 7.6 7.3 7.3 8.3 8.2 7.7 9.7 9.7 9.7 8.9 8.4 7.7 6.8 6.8 7.3 6.8 6.9 6.5 7.0 6.7 6.5 6.5 6.3 6.4 6.6
5.7 5.6 5.5 5.1 4.9 4.2 4.4 5.2 5.8 7.6 7.7 7.9 8.1 8.3 7.9 7.9 7.9 8.4 8.6 7.7 7.5 7.5 7.3 7.3 7.4 8.5 7.4 9.3 8.9 9.6 9.6 9.0 8.8 8.7 6.3 6.9 6.9 7.0 7.2 6.9 6.5 6.5 6.5 6.5 6.5 6.6 6.6
5.7 5.6 5.6 5.3 4.6 3.7 3.8 4.8 5.9 7.8 7.5 7.9 8.0 8.4 7.9 7.9 8.1 8.4 8.4 8.0 7.3 7.3 7.3 7.4 7.6 8.3 7.1 8.0 8.3 7.8 8.7 8.5 8.7 8.6 6.0 8.1 6.7 7.2 6.8 6.5 6.5 6.5 6.5 6.5 6.5 6.6 6.5
5.6 5.6 5.6 5.6 4.3 3.9 3.6 4.2 5.4 7.5 6.5 6.7 7.6 8.0 8.1 8.2 8.5 8.4 8.2 7.1 7.1 7.1 8.0 9.4 9.3 7.6 8.1 7.5 6.6 7.4 8.8 9.0 7.9 7.9 7.0 6.9 6.8 6.5 6.5 6.5 6.5 6.5 6.5 6.5 6.5 6.5 6.5
5.7 5.4 5.3 5.5 4.2 3.5 3.2 3.8 5.5 5.5 5.8 6.8 7.8 7.9 8.1 8.2 8.4 8.5 7.6 7.7 7.4 7.6 8.4 7.4 7.5 7.4 7.9 8.2 7.9 8.4 8.6 6.8 7.4 7.3 6.5 6.8 6.5 6.5 6.5 6.5 6.5 6.5 6.5 6.5 6.5 6.5 6.5
5.6 5.5 5.3 5.1 4.3 3.6 3.2 4.2 4.6 5.4 5.6 6.4 8.0 8.1 7.9 8.4 8.6 8.4 8.2 7.2 7.9 7.9 6.8 8.2 8.2 8.1 8.6 8.7 7.2 8.0 8.2 7.0 6.4 6.5 6.5 6.5 6.5 6.5 6.5 6.5 6.5 6.5 6.5 6.5 6.5 6.5 6.5
5.6 5.5 5.8 4.9 3.4 3.1 3.5 4.6 4.3 4.9 5.1 5.5 7.9 8.0 8.3 8.4 8.8 7.4 7.9 8.6 8.5 8.8 6.8 7.2 8.0 7.7 7.9 7.9 7.1 7.2 7.8 6.8 6.5 6.5 6.5 6.5 6.5 6.5 6.5 6.5 6.5 6.5 6.5 6.5 6.5 6.5 6.5
5.8 5.5 5.6 4.6 3.0 3.0 4.1 4.6 4.3 4.5 4.7 4.9 5.8 7.1 8.1 8.3 6.8 7.8 8.4 9.3 8.2 8.5 6.5 6.5 6.8 7.4 7.9 8.0 6.7 7.8 7.3 6.8 6.5 6.5 6.5 6.5 6.6 6.5 6.5 6.5 6.5 6.5 6.5 6.5 6.5 6.5 6.5
5.8 5.8 5.6 4.1 3.1 3.4 3.9 4.3 4.2 4.1 4.4 4.6 4.9 5.5 6.2 7.9 7.2 8.3 8.3 8.4 8.4 7.7 6.5 6.5 6.7 8.4 8.1 7.0 7.1 7.1 7.9 7.2 6.5 6.5 6.5 6.5 6.5 6.5 6.5 6.5 6.5 6.5 6.5 6.5 6.5 6.5 6.5
5.1 5.9 5.7 4.2 2.9 3.5 3.4 4.0 4.0 3.8 4.3 4.5 4.5 4.4 5.6 7.2 7.4 8.5 8.4 8.3 8.1 6.5 6.5 6.5 6.7 6.5 6.5 6.8 6.8 7.3 6.7 6.7 6.9 6.5 6.5 6.5 6.7 6.5 6.5 6.5 6.5 6.5 6.5 6.5 6.5 6.5 6.5
4.2 5.9 5.4 4.1 3.1 2.7 3.2 3.8 3.7 3.6 4.1 4.4 4.4 5.0 7.0 8.6 7.7 8.4 8.3 7.9 6.5 6.5 6.5 6.5 6.5 6.5 6.5 6.5 6.5 6.5 6.5 6.5 6.5 6.5 6.5 6.5 6.5 6.5 6.6 6.5 6.5 6.5 6.5 6.5 6.5 6.5 6.5
5.0 5.4 5.1 4.0 2.9 2.5 2.7 4.3 3.8 3.7 3.8 4.3 4.5 4.9 6.4 8.4 8.6 8.2 8.0 6.6 6.5 6.5 6.5 6.5 6.5 6.5 6.5 6.5 6.5 6.5 6.5 6.5 6.5 6.5 6.5 6.5 6.5 6.5 6.5 6.5 6.5 6.5 6.5 6.5 6.5 6.5 6.5
5.9 4.6 5.2 3.7 2.9 2.4 2.8 4.0 3.6 3.8 3.5 4.4 4.8 6.1 8.0 6.6 7.1 7.5 6.8 6.5 6.5 6.5 6.5 6.5 6.5 6.5 6.5 6.5 6.5 6.5 6.5 6.5 6.5 6.5 6.5 6.5 6.5 6.5 6.5 6.5 6.5 6.5 6.5 6.5 6.5 6.5 6.5
5.3 5.1 4.9 3.1 3.1 2.3 3.3 4.1 3.7 3.8 3.8 4.4 6.5 7.5 8.2 7.0 6.8 7.4 6.6 6.5 6.5 6.5 6.5 6.5 6.5 6.5 6.5 6.5 6.5 6.5 6.5 6.5 6.5 6.5 6.5 6.5 6.5 6.5 6.5 6.5 6.5 6.5 6.5 6.5 6.5 6.5 6.5
4.8 4.1 4.5 3.4 3.3 2.6 2.7 4.0 3.7 3.7 4.2 5.0 6.6 7.3 6.6 7.4 7.0 6.9 6.5 6.5 6.5 7.0 6.9 6.5 6.5 6.5 6.5 6.5 6.5 6.5 6.5 6.5 6.5 6.5 6.4 6.5 6.5 6.5 6.5 6.5 6.5 6.5 6.5 6.5 6.5 6.5 6.5
6.3 3.8 4.4 3.3 3.1 2.6 3.0 3.9 3.7 3.8 4.6 5.3 7.5 6.5 6.8 7.7 6.6 6.6 6.5 6.5 5.6 6.6 7.1 6.5 6.5 6.5 6.5 6.5 6.5 6.5 6.5 6.5 6.7 6.5 6.5 6.5 6.5 6.5 6.5 6.5 6.5 6.5 6.5 6.5 6.5 6.5 6.5
6.8 5.8 4.6 3.5 2.8 2.7 3.1 4.1 3.6 3.8 4.3 6.8 6.8 7.2 7.5 7.5 6.5 6.5 6.5 6.5 6.6 6.5 6.5 6.5 6.5 6.5 6.5 6.5 6.5 6.5 6.5 6.7 6.9 6.5 6.5 6.5 6.5 6.5 6.5 6.5 6.5 6.5 6.5 6.5 6.5 6.5 6.5
6.2 4.5 4.8 3.5 2.6 2.8 3.3 4.1 3.9 3.8 5.1 4.7 6.9 6.5 7.2 7.2 7.4 6.5 6.5 6.5 6.5 6.9 6.5 6.7 6.5 6.6 6.5 6.5 6.5 6.5 6.5 6.5 6.8 6.7 6.1 6.2 6.5 6.5 6.5 6.5 6.5 6.5 6.5 6.5 6.5 6.5 6.5
5.3 4.8 4.1 3.3 2.6 3.1 3.7 4.4 4.0 3.9 5.0 4.5 6.6 6.6 7.1 6.5 6.6 6.5 6.5 6.5 6.5 6.5 6.7 6.7 6.5 6.5 6.5 6.5 6.5 6.5 6.5 6.5 6.6 6.0 6.5 6.5 6.5 6.5 6.5 6.5 6.5 6.5 6.5 6.5 6.5 6.5 6.5
6.4 5.7 3.5 3.2 2.1 3.0 4.2 4.5 4.0 3.9 5.3 4.8 6.3 6.4 6.9 6.3 6.6 6.5 6.5 6.5 6.5 6.5 6.5 6.5 6.5 6.5 6.5 6.5 6.5 6.5 6.5 6.5 6.5 6.5 6.5 6.5 6.5 6.5 6.5 6.5 6.5 6.5 6.5 6.5 6.5 6.5 6.5
6.7 6.1 3.8 2.9 2.4 3.3 4.0 4.5 3.9 3.9 5.1 5.9 5.4 5.3 5.7 6.3 6.5 6.5 6.5 6.5 6.5 6.5 6.6 6.8 6.5 6.5 6.5 6.5 6.6 6.3 6.5 6.4 6.5 6.5 6.5 6.5 6.5 6.5 6.5 6.5 6.5 6.5 6.5 6.5 6.5 6.5 6.5
6.5 5.7 4.1 2.7 2.4 3.8 4.5 3.9 3.9 3.9 4.8 6.2 5.3 6.3 6.1 6.5 6.5 6.5 6.5 6.5 6.5 6.5 6.5 6.7 6.7 6.5 6.8 7.1 6.7 6.9 6.4 6.2 6.2 6.5 6.4 6.5 6.5 6.5 6.5 6.5 6.5 6.5 6.5 6.5 6.5 6.5 6.5
6.6 6.2 5.3 3.7 3.6 4.4 4.6 3.7 3.7 4.0 4.8 4.8 4.2 5.1 5.7 6.5 6.2 6.5 6.5 6.5 6.6 6.5 6.5 6.6 7.1 7.2 6.9 6.9 6.5 6.5 6.5 6.5 6.5 6.5 6.5 6.5 6.5 6.5 6.5 6.5 6.5 6.5 6.5 6.5 6.5 6.5 6.5
6.4 6.6 6.3 3.6 3.8 4.9 4.7 3.5 3.9 4.5 5.0 4.3 3.8 2.2 4.0 6.0 6.5 6.6 6.4 6.4 6.5 6.5 6.5 6.8 7.4 7.1 7.1 6.5 6.5 6.5 6.5 6.5 6.5 6.5 6.5 6.5 6.5 6.5 6.5 6.5 6.5 6.5 6.5 6.6 6.5 6.5 6.3
6.8 6.1 6.1 4.5 4.4 5.7 4.1 3.6 3.7 4.1 4.3 4.5 2.7 2.6 4.8 6.4 6.3 5.4 6.4 6.4 6.2 6.4 6.5 6.3 6.9 6.5 6.7 6.5 6.5 6.5 6.5 6.5 6.5 6.5 6.5 6.5 6.5 6.5 6.5 6.5 6.5 6.5 6.3 6.8 6.5 6.5 6.7
6.5 6.0 5.6 4.5 5.5 5.8 4.9 3.5 3.3 3.5 4.4 4.6 2.5 3.2 4.4 6.7 6.5 7.3 6.4 6.5 6.2 6.1 6.5 6.3 6.3 6.1 6.3 6.5 6.5 6.5 6.5 6.5 6.5 6.5 6.5 6.5 6.5 6.5 6.5 6.5 6.5 6.3 6.6 6.5 6.4 6.3 6.4
7.0 6.2 5.6 5.2 5.9 5.4 5.6 4.2 3.8 3.9 4.3 5.3 2.8 4.5 3.5 4.0 7.1 6.5 5.8 5.6 5.3 5.8 5.0 6.3 6.3 6.2 6.0 6.5 6.5 6.5 6.5 6.5 6.5 6.5 6.5 6.5 6.5 6.5 6.5 6.5 6.1 6.6 6.5 6.4 6.3 6.5 6.8
Wind_Speed
20 20 18 15 13 13 12 12 14 16 16 17 18 16 12 13 12 15 16 15 12 14 9 12 13 14 8 6 3 5 0 4 1 5 5 9 11 12 15 14 7 5 3 10 7 11 6
23 22 21 18 15 14 14 13 15 16 16 16 18 14 12 13 12 14 15 15 11 13 10 11 12 13 7 7 1 2 2 4 3 8 7 6 6 10 11 14 9 7 2 2 8 12 8
25 25 24 21 18 15 13 14 12 16 15 16 15 15 13 14 14 12 13 14 14 12 11 11 12 8 9 7 6 3 1 2 5 6 9 3 9 5 5 9 15 7 6 6 8 9 5
26 26 27 25 20 13 12 16 14 15 14 16 14 15 14 14 14 11 14 15 14 13 11 11 11 9 6 4 6 6 6 3 2 4 4 7 8 10 4 9 9 6 4 2 7 10 8
26 25 27 26 19 15 13 13 16 14 14 14 14 14 12 13 13 12 14 14 14 13 11 11 8 7 4 5 3 7 6 7 2 6 2 5 9 6 8 11 6 7 6 8 11 14 9
24 25 25 24 19 15 13 12 14 12 13 14 14 13 12 12 12 11 14 16 13 9 9 9 7 5 5 4 2 5 6 9 6 8 5 2 6 3 4 8 13 8 8 9 6 9 14
25 22 24 27 17 15 11 13 13 10 12 14 13 11 12 11 12 12 10 6 3 3 6 4 4 5 4 6 6 4 4 5 5 9 4 2 4 8 15 14 12 14 15 18 15 15 11
25 24 22 13 18 15 12 13 9 10 11 13 11 11 10 11 11 11 5 4 6 3 2 1 4 6 3 2 1 4 3 4 3 6 10 3 4 13 22 17 16 10 14 13 13 13 9
25 24 21 16 19 16 14 12 9 9 10 10 10 8 10 10 9 6 7 4 4 5 3 2 1 5 2 3 2 1 2 3 2 7 8 3 5 5 7 10 9 13 19 14 14 10 4
27 22 21 20 21 17 14 11 8 7 7 9 8 9 9 7 3 3 3 3 2 4 0 2 1 1 2 3 2 2 3 3 3 9 10 4 7 3 7 18 10 6 8 15 16 8 4
30 24 20 24 24 19 14 12 8 6 7 8 8 9 8 4 5 2 4 2 2 2 1 4 2 2 3 3 2 2 3 4 8 9 3 3 2 2 7 8 6 4 13 6 12 8 5
34 25 20 24 22 20 16 13 8 5 6 6 7 7 2 4 3 3 0 1 2 2 3 4 3 2 2 7 3 2 2 1 3 8 10 4 2 1 5 6 5 3 8 9 6 3 2
28 26 18 27 24 19 15 13 9 6 3 2 4 6 4 4 2 4 1 2 2 2 2 0 1 1 6 5 5 5 5 3 1 5 3 3 4 3 3 5 2 4 7 3 3 2 3
30 29 24 28 26 21 17 14 11 7 3 1 2 4 2 2 2 1 2 2 1 3 2 3 2 2 3 2 2 6 3 2 4 5 3 2 3 2 2 1 4 4 5 3 4 4 3
32 30 27 28 26 23 20 16 13 9 7 6 6 1 2 3 0 1 2 2 2 2 3 6 4 2 3 3 2 4 1 2 3 6 3 3 3 4 5 4 3 4 3 3 2 3 5
31 31 29 30 28 25 21 18 14 12 10 14 3 2 3 4 2 2 2 2 2 2 3 5 1 3 3 4 5 3 2 3 3 3 3 4 4 4 4 3 2 2 6 1 3 2 2
40 41 30 30 28 25 23 20 17 14 13 14 2 2 3 4 0 3 1 3 4 4 3 2 2 1 7 4 3 2 5 3 2 3 5 1 5 4 4 1 4 0 2 2 1 3 0
32 38 31 31 29 26 23 22 20 17 17 9 2 2 3 3 1 3 2 3 1 8 2 2 2 3 4 3 3 3 5 4 5 4 2 4 3 4 2 3 3 5 4 4 3 4 1
32 27 29 32 31 28 25 23 22 20 25 4 4 3 2 1 2 3 3 5 1 7 8 7 4 3 4 3 2 4 5 2 4 3 4 0 3 3 2 2 4 4 5 3 2 3 2
40 44 32 33 32 29 26 25 23 24 30 0 3 4 3 2 3 5 6 5 5 0 4 1 8 5 3 3 3 4 7 3 3 4 4 3 2 2 2 1 6 5 6 6 3 2 4
42 45 33 34 33 30 26 25 24 23 23 3 3 4 5 4 5 8 2 7 8 4 2 4 4 2 0 3 5 4 3 5 2 2 2 4 3 3 5 6 6 3 6 8 6 7 2
39 39 34 35 33 29 27 25 24 22 19 2 3 3 2 4 8 10 4 5 7 6 3 3 2 4 2 7 3 6 6 4 1 2 1 2 1 3 1 1 1 1 5 4 10 12 12
39 38 31 34 32 30 27 25 24 24 18 3 2 0 1 5 8 8 6 6 7 6 3 6 3 8 9 6 6 6 3 4 2 3 2 1 3 1 1 2 3 3 2 8 4 1 1
39 29 31 34 33 30 27 26 23 27 19 1 3 2 2 4 7 5 7 7 8 1 5 4 6 5 1 3 4 2 5 5 6 5 2 3 2 3 1 3 1 3 3 2 4 6 7
35 33 24 30 30 29 27 25 22 28 25 1 1 1 2 5 5 6 9 8 7 4 8 6 4 3 2 4 4 5 3 3 4 4 1 2 4 2 2 4 4 3 2 1 0 3 6
36 33 29 32 30 27 25 22 21 25 23 1 1 1 3 6 1 3 7 7 6 4 4 3 3 1 1 2 1 1 2 3 5 5 1 3 2 1 2 2 2 4 4 3 2 4 5
36 19 32 32 28 24 24 20 20 23 22 3 1 2 2 4 4 6 3 2 4 2 3 4 1 2 1 1 1 0 2 4 3 4 3 2 1 2 3 2 2 3 5 2 3 1 2
32 13 29 30 27 25 23 21 21 24 19 4 3 2 2 4 4 7 5 3 3 2 2 2 2 1 1 1 1 1 2 1 2 2 1 4 3 3 3 3 3 5 0 1 2 5 7
26 31 30 28 27 25 25 23 21 21 18 6 3 1 7 6 5 7 10 8 6 6 2 1 2 4 2 2 1 1 1 1 2 2 2 1 2 1 4 2 3 4 4 6 8 6 8
Wind_Direction
280 280 277 275 276 281 289 297 302 306 313 316 324 324 327 325 321 331 318 319 307 312 316 315 316 327 319 237 288 120 64 70 133 178 248 250 222 208 203 181 165 229 259 129 143 140 254
273 275 274 267 265 263 276 291 303 303 312 315 324 327 323 322 321 327 319 314 312 306 320 305 310 319 274 286 318 73 39 326 250 201 191 275 254 234 208 184 185 171 43 30 156 127 161
272 269 268 263 256 260 272 281 291 298 306 312 321 330 320 319 318 317 317 319 315 313 315 295 302 296 286 265 287 315 307 258 333 225 204 258 314 326 235 200 180 170 202 267 204 191 129
277 273 269 261 248 248 262 279 286 297 302 308 320 324 321 322 316 315 319 319 310 311 302 284 292 290 271 82 358 332 317 206 237 161 219 299 322 299 245 140 122 121 63 312 232 173 167
279 280 277 270 239 229 246 272 281 293 304 311 320 317 324 318 322 313 320 313 299 293 274 274 266 235 284 140 25 326 292 274 198 169 171 285 321 235 240 173 140 165 163 237 256 193 199
280 282 284 277 220 220 239 264 273 294 303 310 314 317 321 316 320 314 320 302 283 295 249 249 253 267 282 3 57 303 275 270 241 165 103 18 251 152 247 180 187 161 134 195 259 215 203
283 281 285 290 202 212 229 257 269 289 300 306 314 321 317 323 324 328 326 302 219 198 240 324 331 302 338 90 154 317 36 336 177 162 130 341 356 203 214 206 185 163 158 168 213 223 189
279 279 282 267 203 210 228 249 261 285 298 305 317 318 321 325 321 319 299 267 55 347 268 210 279 265 261 320 285 342 77 63 340 128 122 128 227 205 215 197 210 204 194 177 152 185 172
273 275 276 226 200 207 224 239 252 275 294 304 313 316 321 325 328 288 243 322 351 330 256 162 326 296 340 330 75 351 119 120 225 162 156 150 130 352 277 174 197 188 211 164 157 144 142
267 265 271 209 202 210 217 228 242 268 290 302 309 311 317 326 300 237 220 108 283 327 181 335 264 45 252 292 17 62 100 175 143 175 117 50 6 11 281 189 208 176 172 147 134 133 178
265 258 265 207 199 207 209 218 230 260 289 298 308 308 305 238 318 247 46 143 284 238 265 321 333 348 286 334 171 67 105 249 105 102 80 31 90 309 256 159 231 70 107 173 149 189 117
283 257 263 207 198 200 201 210 218 241 267 302 319 311 254 158 219 296 184 262 259 239 78 300 286 314 283 40 53 31 325 199 127 69 62 68 51 256 306 63 56 80 81 62 38 28 8
297 254 239 201 199 199 200 200 201 217 253 326 348 112 173 181 341 123 215 233 248 347 229 281 245 251 75 20 31 17 22 14 127 101 70 33 356 330 283 76 68 157 117 69 45 22 219
285 259 213 205 191 188 192 201 198 194 194 151 146 119 204 25 168 131 266 232 332 95 159 205 157 239 64 133 24 52 45 326 323 98 82 107 126 296 247 7 161 203 175 142 164 172 170
303 271 210 197 192 183 190 193 191 185 168 161 164 192 193 115 307 264 262 243 73 126 179 149 179 128 121 136 146 119 203 280 54 2 87 96 75 238 258 359 8 244 12 19 15 253 98
317 277 201 189 187 181 185 190 185 178 169 168 178 191 139 152 254 290 262 55 91 149 268 173 15 296 132 153 169 170 112 255 105 17 300 135 98 308 61 330 341 295 132 125 337 111 169
327 315 192 186 182 185 179 187 181 173 174 182 229 206 98 178 343 233 275 81 107 144 314 40 2 101 141 159 164 117 123 149 108 143 301 319 114 116 80 299 169 107 26 274 84 77 358
297 318 185 179 174 182 183 183 178 171 167 158 203 174 140 195 240 236 191 160 40 146 161 117 271 324 330 123 47 63 97 81 135 165 112 82 100 115 134 287 291 301 217 220 115 268 337
306 286 196 175 173 180 183 184 178 174 169 169 156 119 147 191 214 218 142 147 280 157 176 178 156 280 331 56 79 110 86 50 45 47 22 30 111 100 106 246 192 242 212 270 17 67 196
321 311 188 171 170 180 181 183 180 178 194 350 148 149 147 202 244 263 175 162 134 305 121 144 114 171 193 108 5 134 122 154 132 87 334 309 178 91 137 251 152 184 212 204 154 96 210
321 321 166 169 169 177 180 184 184 182 193 209 207 170 170 175 222 237 261 171 146 147 151 223 144 252 284 122 115 123 111 135 130 133 264 343 106 77 69 24 42 1 210 216 176 213 209
315 301 165 171 167 176 183 183 185 183 173 254 176 167 153 157 180 207 195 209 143 119 349 146 108 137 28 69 80 156 152 161 104 178 269 79 33 76 276 116 77 259 305 252 214 211 218
316 307 175 170 165 177 183 185 185 180 167 198 87 71 283 130 172 197 180 160 123 130 41 32 37 103 90 74 24 31 60 112 47 142 194 12 116 89 139 12 318 299 249 225 216 278 348
313 306 173 167 167 180 181 183 185 179 192 291 199 159 200 168 197 171 134 132 139 8 118 67 7 89 97 209 258 212 85 95 87 55 80 150 91 105 251 353 313 145 51 38 48 57 39
307 310 190 168 172 177 181 178 183 185 197 320 110 236 220 142 120 132 143 118 124 98 84 70 52 44 248 222 152 141 153 160 77 27 89 99 158 177 159 208 139 136 127 108 199 81 45
302 281 230 172 173 177 177 173 181 186 187 220 70 11 277 120 52 159 133 166 151 126 140 94 93 85 242 262 155 175 160 124 157 146 21 320 330 145 181 293 300 103 58 351 311 179 43
300 248 173 169 166 173 168 165 168 177 175 134 91 331 43 98 21 350 84 84 343 59 89 112 74 146 339 263 285 332 133 5 153 173 169 178 226 220 270 301 26 31 301 276 182 180 46
307 207 170 162 165 169 168 154 153 162 163 135 96 316 61 84 37 43 32 45 355 342 139 118 126 280 209 226 84 338 61 70 3 106 139 166 171 203 182 207 265 330 267 32 44 18 9
269 280 166 159 164 167 172 158 153 160 160 144 96 52 62 76 91 94 76 54 32 21 342 60 62 37 54 75 66 76 177 44 5 181 351 87 77 323 35 65 108 41 51 97 42 22 360